Location: *
(34.0486°S, 61.7880°E)
Time: 13:20:53
(UTC+00:00)

KORONAS-FOTON - Pass Details

Date: 01 April 2020
Orbit: 506 x 531 km, 82.4° (Epoch: 04 June)

Event Time Altitude Azimuth Distance (km) Brightness Sun altitude
Rises 14:53:58 0° 14° (NNE) 2,601 7.2 -14.6°
Reaches altitude 10° 14:56:12 10° 23° (NNE) 1,726 6.2 -15.1°
Maximum altitude 14:59:38 34° 88° (E) 864 4.3 -15.8°
Drops below altitude 10° 15:03:09 10° 154° (SSE) 1,757 6.3 -16.5°
Sets 15:05:25 0° 163° (SSE) 2,656 7.3 -17.0°
